When you browse on this site, cookies collect data to enhance your experience and personalize the content and advertising you see.
Visit our Privacy Policy to learn more. By continuing to use the site, you agree to this use of cookies and data.
  • In France
  • List of Countries
  • For 7 days
  • Water Temperature
  • Satellite Maps
  • Weather Map
  • Weather Widgets
  • user-avatar
    Login

    Hourly Weather Kranevo

    Today, 23 March, Saturday

    Time Temperature Precipitation Wind Pressure Humidity
    00:00 +9°C° 0 mm 3 mps 764 mmHg 64%
    01:00 +9°C° 0 mm 3 mps 764 mmHg 63%
    02:00 +8°C° 0 mm 4 mps 763 mmHg 59%
    03:00 +8°C° 0 mm 4 mps 763 mmHg 65%
    04:00 +8°C° 0 mm 4 mps 763 mmHg 72%
    05:00 +7°C° 0 mm 4 mps 763 mmHg 78%
    06:00 +8°C° 0 mm 4 mps 763 mmHg 74%
    07:00 +9°C° 0 mm 5 mps 763 mmHg 71%
    08:00 +9°C° 0 mm 5 mps 763 mmHg 66%
    09:00 +10°C° 0 mm 5 mps 763 mmHg 61%
    10:00 +10°C° 0 mm 5 mps 763 mmHg 56%
    11:00 +10°C° 0 mm 5 mps 763 mmHg 51%
    12:00 +10°C° 0 mm 5 mps 763 mmHg 48%
    13:00 +10°C° 0 mm 5 mps 763 mmHg 45%
    14:00 +12°C° 0 mm 4 mps 762 mmHg 45%
    15:00 +12°C° 0 mm 4 mps 762 mmHg 43%
    16:00 +12°C° 0 mm 4 mps 762 mmHg 42%
    17:00 +12°C° 0 mm 4 mps 762 mmHg 40%
    18:00 +10°C° 0 mm 3 mps 762 mmHg 45%
    19:00 +9°C° 0 mm 3 mps 763 mmHg 50%
    20:00 +8°C° 0 mm 2 mps 763 mmHg 55%
    21:00 +7°C° 0 mm 2 mps 763 mmHg 57%
    22:00 +8°C° 0 mm 1 mps 763 mmHg 59%
    23:00 +7°C° 0 mm 1 mps 763 mmHg 62%

    Tomorrow, 24 March, Sunday

    Time Temperature Precipitation Wind Pressure Humidity
    00:00 +7°C° 0 mm 1 mps 763 mmHg 60%
    01:00 +5°C° 0 mm 2 mps 763 mmHg 59%
    02:00 +5°C° 0 mm 2 mps 763 mmHg 58%
    03:00 +5°C° 0 mm 2 mps 763 mmHg 56%
    04:00 +4°C° 0 mm 3 mps 763 mmHg 54%
    05:00 +3°C° 0 mm 3 mps 763 mmHg 52%
    06:00 +4°C° 0 mm 4 mps 763 mmHg 52%
    07:00 +5°C° 0 mm 4 mps 763 mmHg 52%
    08:00 +6°C° 0 mm 4 mps 763 mmHg 51%
    09:00 +7°C° 0 mm 4 mps 763 mmHg 48%
    10:00 +10°C° 0 mm 4 mps 763 mmHg 44%
    11:00 +11°C° 0 mm 3 mps 763 mmHg 41%
    12:00 +11°C° 0 mm 3 mps 762 mmHg 40%
    13:00 +12°C° 0 mm 3 mps 762 mmHg 40%
    14:00 +12°C° 0 mm 3 mps 762 mmHg 39%
    15:00 +12°C° 0 mm 3 mps 761 mmHg 43%
    16:00 +11°C° 0 mm 3 mps 761 mmHg 47%
    17:00 +11°C° 0 mm 3 mps 760 mmHg 51%
    18:00 +9°C° 0 mm 3 mps 760 mmHg 57%
    19:00 +8°C° 0 mm 2 mps 760 mmHg 64%
    20:00 +7°C° 0 mm 2 mps 760 mmHg 70%
    21:00 +6°C° 0 mm 2 mps 760 mmHg 71%
    22:00 +6°C° 0 mm 2 mps 760 mmHg 72%
    23:00 +6°C° 0 mm 2 mps 760 mmHg 73%

    Day after tomorrow, 25 March, Monday

    Time Temperature Precipitation Wind Pressure Humidity
    00:00 +6°C° 0 mm 2 mps 760 mmHg 73%
    01:00 +5°C° 0 mm 3 mps 760 mmHg 73%
    02:00 +5°C° 0 mm 3 mps 760 mmHg 73%
    03:00 +5°C° 0 mm 3 mps 759 mmHg 73%
    04:00 +5°C° 0 mm 3 mps 759 mmHg 73%
    05:00 +5°C° 0 mm 3 mps 758 mmHg 73%
    06:00 +7°C° 0 mm 3 mps 758 mmHg 68%
    07:00 +8°C° 0 mm 3 mps 758 mmHg 64%
    08:00 +9°C° 0 mm 3 mps 758 mmHg 60%
    09:00 +11°C° 0 mm 3 mps 757 mmHg 54%
    10:00 +12°C° 0 mm 3 mps 757 mmHg 48%
    11:00 +14°C° 0 mm 4 mps 757 mmHg 42%
    12:00 +15°C° 0 mm 4 mps 756 mmHg 42%
    13:00 +15°C° 0 mm 5 mps 755 mmHg 43%
    14:00 +16°C° 0 mm 6 mps 755 mmHg 43%
    15:00 +15°C° 0 mm 6 mps 754 mmHg 47%
    16:00 +14°C° 0 mm 6 mps 754 mmHg 52%
    17:00 +13°C° 0 mm 6 mps 754 mmHg 56%
    18:00 +10°C° 0 mm 5 mps 754 mmHg 61%
    19:00 +9°C° 0 mm 5 mps 754 mmHg 66%
    20:00 +8°C° 0 mm 4 mps 754 mmHg 71%
    21:00 +8°C° 0 mm 4 mps 754 mmHg 73%
    22:00 +7°C° 0 mm 4 mps 754 mmHg 75%
    23:00 +7°C° 0 mm 4 mps 754 mmHg 77%

    26 March, Tuesday

    Time Temperature Precipitation Wind Pressure Humidity
    00:00 +8°C° 0 mm 3 mps 754 mmHg 80%
    01:00 +8°C° 0 mm 3 mps 754 mmHg 83%
    02:00 +8°C° 0 mm 3 mps 754 mmHg 85%
    03:00 +8°C° 0 mm 3 mps 754 mmHg 86%
    04:00 +7°C° 0 mm 3 mps 754 mmHg 87%
    05:00 +7°C° 0 mm 3 mps 754 mmHg 88%
    06:00 +8°C° 0 mm 3 mps 754 mmHg 84%
    07:00 +9°C° 0 mm 3 mps 754 mmHg 79%
    08:00 +10°C° 0 mm 3 mps 755 mmHg 75%
    09:00 +12°C° 0 mm 3 mps 755 mmHg 67%
    10:00 +13°C° 0 mm 3 mps 755 mmHg 60%
    11:00 +16°C° 0 mm 3 mps 755 mmHg 52%
    12:00 +17°C° 0 mm 2 mps 755 mmHg 50%
    13:00 +17°C° 0 mm 2 mps 755 mmHg 48%
    14:00 +18°C° 0 mm 2 mps 755 mmHg 46%
    15:00 +17°C° 0 mm 4 mps 756 mmHg 53%
    16:00 +14°C° 0 mm 5 mps 756 mmHg 60%
    17:00 +11°C° 0 mm 6 mps 756 mmHg 68%
    18:00 +10°C° 0 mm 6 mps 757 mmHg 71%
    19:00 +9°C° 0 mm 7 mps 758 mmHg 74%
    20:00 +8°C° 0 mm 7 mps 759 mmHg 76%
    21:00 +8°C° 0.3 mm 7 mps 759 mmHg 75%
    22:00 +8°C° 0.3 mm 6 mps 760 mmHg 74%
    23:00 +8°C° 0.3 mm 6 mps 760 mmHg 73%

    27 March, Wednesday

    Time Temperature Precipitation Wind Pressure Humidity
    00:00 +8°C° 0.1 mm 6 mps 761 mmHg 71%
    01:00 +8°C° 0.1 mm 6 mps 761 mmHg 70%
    02:00 +7°C° 0.1 mm 6 mps 761 mmHg 68%
    03:00 +7°C° 0 mm 6 mps 761 mmHg 67%
    04:00 +7°C° 0 mm 6 mps 762 mmHg 66%
    05:00 +5°C° 0 mm 7 mps 762 mmHg 65%
    06:00 +5°C° 0 mm 7 mps 762 mmHg 62%
    07:00 +5°C° 0 mm 6 mps 763 mmHg 59%
    08:00 +5°C° 0 mm 6 mps 763 mmHg 56%
    09:00 +7°C° 0 mm 6 mps 764 mmHg 51%
    10:00 +8°C° 0 mm 5 mps 764 mmHg 45%
    11:00 +9°C° 0 mm 5 mps 764 mmHg 40%
    12:00 +10°C° 0 mm 5 mps 764 mmHg 39%
    13:00 +11°C° 0 mm 4 mps 764 mmHg 38%
    14:00 +11°C° 0 mm 4 mps 764 mmHg 37%
    15:00 +11°C° 0 mm 4 mps 764 mmHg 39%
    16:00 +10°C° 0 mm 4 mps 764 mmHg 42%
    17:00 +10°C° 0 mm 4 mps 764 mmHg 44%
    18:00 +8°C° 0 mm 3 mps 764 mmHg 48%
    19:00 +7°C° 0 mm 2 mps 765 mmHg 52%
    20:00 +7°C° 0 mm 1 mps 765 mmHg 55%
    21:00 +7°C° 0 mm 1 mps 766 mmHg 56%
    22:00 +6°C° 0 mm 1 mps 766 mmHg 56%
    23:00 +6°C° 0 mm 1 mps 766 mmHg 57%

    28 March, Thursday

    Time Temperature Precipitation Wind Pressure Humidity
    00:00 +6°C° 0 mm 1 mps 766 mmHg 57%
    01:00 +5°C° 0 mm 2 mps 766 mmHg 58%
    02:00 +4°C° 0 mm 3 mps 766 mmHg 59%
    03:00 +4°C° 0 mm 3 mps 766 mmHg 61%
    04:00 +3°C° 0 mm 4 mps 767 mmHg 64%
    05:00 +3°C° 0 mm 4 mps 767 mmHg 67%
    06:00 +3°C° 0 mm 5 mps 767 mmHg 63%
    07:00 +5°C° 0 mm 5 mps 767 mmHg 59%
    08:00 +4°C° 0 mm 6 mps 767 mmHg 56%
    09:00 +5°C° 0 mm 6 mps 767 mmHg 53%
    10:00 +7°C° 0 mm 6 mps 767 mmHg 50%
    11:00 +8°C° 0 mm 6 mps 767 mmHg 48%
    12:00 +8°C° 0 mm 6 mps 767 mmHg 48%
    13:00 +8°C° 0 mm 6 mps 767 mmHg 49%
    14:00 +8°C° 0 mm 7 mps 767 mmHg 49%
    15:00 +8°C° 0 mm 6 mps 767 mmHg 50%
    16:00 +7°C° 0 mm 6 mps 766 mmHg 51%
    17:00 +7°C° 0 mm 6 mps 766 mmHg 52%
    18:00 +5°C° 0 mm 6 mps 767 mmHg 56%
    19:00 +5°C° 0 mm 5 mps 767 mmHg 60%
    20:00 +4°C° 0 mm 4 mps 767 mmHg 65%
    21:00 +3°C° 0 mm 4 mps 767 mmHg 65%
    22:00 +3°C° 0 mm 4 mps 767 mmHg 66%
    23:00 +3°C° 0 mm 3 mps 767 mmHg 67%
    Show more